Weather in Portofino

Italy     44°18′17″N   9°12′22″E
В апреле 2022 года жителям России запретили посещать сайт meteo.paraplan.net по решению Генеральной прокуратуры. Аудитория сайта уменьшилась в 10 раз. Владельцы сайта не видят смысла в поддержке погодного сервера в таких условиях. Сайт будет закрыт в октябре.
temp.,
°C
wind,
m/s
gust,
m/s
humid.,
%
clouds,
%
prec.,
mm/h
press.,
hPa
HPBL,
m
5 october, wed
wed523:00+20ne32720 0.0 1024115
02:00+19ne32700 0.0 1024107
05:00+19nne22670 0.0 1024107
08:00+19ne22650 0.0 1025119
11:00+20ssw11612 0.0 1026197
14:00+20s22665 0.0 1026290
17:00+20se11675 0.0 1025203
20:00+20nne21705 0.0 1026100
6 october, thu
thu623:00+19ne32658 0.0 1027110
02:00+19ne32590 0.0 1027110
05:00+18ne32585 0.0 1026129
08:00+18ne22590 0.0 1027131
11:00+20s11565 0.0 1027185
14:00+20ssw11625 0.0 1027235
17:00+20nne006468 0.0 1026157
20:00+19n226734 0.0 1027101
7 october, fri
fri723:00+19n22665 0.0 1027105
02:00+19nne326496 0.0 1026104
05:00+19nne3263100 0.0 1025124
08:00+19nne32635 0.0 1024130
11:00+20ssw11585 0.0 1024178
14:00+21ssw225819 0.0 1023201
17:00+21se226364 0.0 1021127
20:00+20ne11705 0.0 102235
8 october, sat
sat823:00+19ne32665 0.0 102297
02:00+19ne22620 0.0 1021107
05:00+18ene22625 0.0 1020144
08:00+18ene32665 0.0 1020180
11:00+19sse11635 0.0 1021221
14:00+19sse227286 0.0 1020320
17:00+19se1174100 0.0 1019221
20:00+19ne2274100 0.0 1020150
9 october, sun
sun923:00+19ne2272100 0.0 1021152
02:00+19ne2265100 0.0 1020120
05:00+19nne2160100 0.0 1020113
08:00+19n2260100 0.0 1020123
11:00+20w1158100 0.0 1021170
14:00+20sw2265100 0.0 1020200
17:00+20se1166100 0.0 101982
20:00+20ese2269100 0.4 102096